Regional Weather Roundup
Issued by NWS Cleveland, OH

Home | Current Version | Previous Version | Graphics & Text | Print | Product List | Glossary On
Versions: 1 2 3 4 5 6 7 8 9 10 11 12 13 14 15 16 17 18 19 20 21 22 23 24 25 26 27 28 29 30 31 32 33 34 35 36 37 38 39 40 41 42 43 44 45 46 47 48 49 50
000
ASUS41 KCLE 280902
RWRCLE
OHIO REGIONAL WEATHER ROUNDUP
NATIONAL WEATHER SERVICE CLEVELAND, OH
500 AM EDT THU MAY 28 2015

NOTE: "FAIR" INDICATES FEW OR NO CLOUDS BELOW 12,000 FEET WITH NO
SIGNIFICANT WEATHER AND/OR OBSTRUCTIONS TO VISIBILITY.

OHZ001>008-015>018-024>027-034-035-043-044-281000-
   NORTHWEST OHIO

CITY           SKY/WX    TMP DP  RH WIND       PRES   REMARKS
DEFIANCE       CLEAR     58  55  90 CALM      30.19R
FINDLAY        PTCLDY    61  59  93 N6        30.16R
TOLEDO EXPRESS CLEAR     56  55  97 CALM      30.18R
TOLEDO EXEC    CLEAR     58  55  90 CALM      30.18R
LIMA           PTCLDY    61  58  90 CALM      30.18R
$$

OHZ009>014-019>023-028>033-038-089-281000-
   NORTHEAST OHIO

CITY           SKY/WX    TMP DP  RH WIND       PRES   REMARKS
CLE-HOPKINS    PTCLDY    64  62  93 NW7       30.19R
CLE-LAKEFRONT  CLEAR     62  59  90 CALM      30.17R
CUY CO. ARPT   NOT AVBL
LORAIN-ELYRIA  PTCLDY    62  62 100 N5        30.18R FOG
ASHTABULA      MOCLDY    62  60  93 NW5       30.18R
AKRON-CANTON   MOCLDY    63  60  90 NW6       30.17R FOG
WOOSTER        CLEAR     63  61  93 N5        30.18R
MANSFIELD      FOG       61  61 100 NW5       30.18R VSB 3/4
YOUNGSTOWN     CLOUDY    63  62  97 NW5       30.16R FOG
$$

OHZ042-051>053-060>062-070>072-077>081-281000-
  SOUTHWEST OHIO

CITY           SKY/WX    TMP DP  RH WIND       PRES   REMARKS
CINC-COVINGTON CLOUDY    63  61  93 CALM      30.17S
CINC-LUNKEN    MOCLDY    60  60 100 CALM      30.18R
HAMILTON       MOCLDY    61  59  93 CALM      30.17S
DAYTON         MOCLDY    63  61  93 W5        30.17R
WRIGHT-PAT AFB MOCLDY    65  63  91 SW2       30.17R
DAYTON GENERAL CLOUDY    64  62  93 CALM      30.16S
WILMINGTON     MOCLDY    62  59  90 CALM      30.17S
$$

OHZ036-037-039>041-045>050-054>059-063>069-073>076-082>088-281000-
  CENTRAL AND SOUTHEAST OHIO

CITY           SKY/WX    TMP DP  RH WIND       PRES   REMARKS
COLUMBUS       MOCLDY    65  59  81 CALM      30.16R
OSU AIRPORT    PTCLDY    64  60  87 W3        30.16R
BOLTON FIELD   NOT AVBL
RICKENBACK AFB NOT AVBL
NEWARK         MOCLDY    62  59  90 CALM      30.17R
MARION         PTCLDY    65  62  90 N5        30.17R FOG
LANCASTER      PTCLDY    61  58  90 CALM      30.18R
ZANESVILLE     NOT AVBL
NEW PHILLY     MOCLDY    63  60  90 CALM      30.17R
$$



USA.gov is the U.S. government's official web portal to all federal, state and local government web resources and services.